Zurück zum Katalog

FENGYUN 1C DEB

AktivPO
NORAD 36255·DEBRIS·🇨🇳 China

Gestartet May 10, 1999 von Taiyuan Satellite Launch Center

Loading…

Nächste Überflüge (nächste 24 Stunden)

TLE

AktuellSource: Space-Track

Epoche: Sep 14, 2026, 02:51 UTC

1 36255U 99025DWG 26257.11889183  .00001377  00000-0  46419-3 0  9992
2 36255  99.4498 209.4244 0064631  85.9814 330.2271 14.37684380679662

Verfolge FENGYUN 1C DEB in Echtzeit mit AllMySat

Download on the App Store